Location: Cutler
(25.6150°N, 80.3110°W)
Time: 20:14:37
(UTC-05:00)

Vanguard 1 - Pass Details

Date: 28 January 2018
Orbit: 650 x 3833 km, 34.2° (Epoch: 21 February)

Event Time Altitude Azimuth Distance (km) Brightness Sun altitude
Rises 00:23:28 0° 290° (WNW) 3,442 - -82.2°
Reaches altitude 10° 00:25:37 10° 296° (WNW) 2,714 - -82.3°
Maximum altitude 00:31:57 48° 11° (NNE) 1,723 - -82.6°
Drops below altitude 10° 00:43:17 10° 84° (E) 4,766 - -82.3°
Exits shadow 00:47:10 - 88° (E) 5,953 14.1 -82.0°
Sets 00:48:25 0° 89° (E) 6,320 14.2 -81.9°
